Regional Weather Roundup
Issued by NWS

Home | Current Version | Previous Version | Graphics & Text | Print | Product List | Glossary On
Versions: 1 2 3 4 5 6 7 8 9 10 11 12 13 14 15 16 17 18 19 20 21 22 23 24 25 26 27 28 29 30 31 32 33 34 35 36 37 38 39 40 41 42 43 44 45 46 47 48 49 50
000
ASUS45 KTFX 211219
RWRMT
MONTANA HOURLY WEATHER ROUNDUP
NATIONAL WEATHER SERVICE GREAT FALLS MT
619 AM MDT TUE OCT 21 2014

NOTE: "FAIR" INDICATES FEW OR NO CLOUDS BELOW 12000 FEET WITH NO
SIGNIFICANT WEATHER AND/OR OBSTRUCTIONS TO VISIBILITY.

* THESE STATIONS ARE NOT UNDER NWS QUALITY CONTROL. THEY DO NOT
   REPORT WEATHER SUCH AS PRECIPITATION OR FOG.

MTZ001>007-043-211300-
WEST OF THE DIVIDE
CITY           SKY/WX    TMP DP  RH WIND       PRES   REMARKS
KALISPELL      CLOUDY    41  39  93 CALM      29.76S
MISSOULA       LGT RAIN  52  43  72 N8        29.77F
BUTTE          MOCLDY    46  34  63 CALM      29.78F
MULLAN PASS    LGT RAIN  36  36 100 NW7       29.84S VSB 1/2  WCI  30
* ESSEX        N/A       38  35  89 NW1        N/A
* LINCOLN      N/A       34  30  85 N/A        N/A
* POLSON       N/A       50  39  66 E1         N/A
* RONAN APT    CLOUDY    50  43  77 N/A        N/A
* SEELEY LAKE  N/A       38  34  86 NE2        N/A
* THOMP F APT  CLOUDY    49  40  71 E8G18      N/A
$$

MTZ008-052>055-211300-
SOUTHWEST MONTANA
CITY           SKY/WX    TMP DP  RH WIND       PRES   REMARKS
BOZEMAN        MOCLDY    45  36  71 SE3       29.76F
DILLON         CLOUDY    52  36  55 CALM      29.76F
W YELLOWSTONE  LGT RAIN  34  32  92 NE6       29.93S WCI  29
* THREE FORKS  MOCLDY    43  43 100 N/A        N/A
* BOULDER HILL N/A       50  29  44 S8         N/A
* MONIDA PASS  N/A       44  36  74 E7         N/A
* RAYNOLDS PAS N/A       49  30  48 S16        N/A
* WHITEHALL    N/A       45  32  60 NW4G10     N/A
* WISE RIVER   N/A       36  30  79 SE1G10     N/A
$$

MTZ009>010-012-014-046-048-049-054-211300-
EAST SLOPES AND CENTRAL MONTANA
CITY           SKY/WX    TMP DP  RH WIND       PRES   REMARKS
CUT BANK       CLOUDY    57  36  46 W12       29.66F
GREAT FALLS    MOCLDY    52  36  55 S8        29.67S
HELENA         PTCLDY    46  36  68 CALM      29.72S
MALMSTROM AFB  MOCLDY    52  36  55 S5        29.67F
* CONRAD       CLOUDY    43  36  76 N/A        N/A
* DEARBORN     N/A       43  37  79 S5         N/A
* EAST GLACIER N/A       52  33  48 W14G19     N/A
* MONARCH      N/A       54  31  42 S8         N/A
* PENDROY      N/A       52  33  48 W1         N/A
* ROGERS PASS  N/A       48  31  52 NW2        N/A
* SAINT MARY   N/A       56  33  42 S6G17      N/A
* SWEET GRASS  N/A       56  29  36 NW9        N/A
* WHITE SULPH  N/A       47  33  58 E9G14      N/A
$$

MTZ011-013-016-021-035-040-045-047-050-051-211300-
NORTH CENTRAL MONTANA
CITY           SKY/WX    TMP DP  RH WIND       PRES   REMARKS
HAVRE          PTCLDY    36  34  92 SW6       29.64S WCI  31
LEWISTOWN      CLEAR     54  36  51 VRB3      29.73R
* CHINOOK      CLEAR     45  37  74 CALM      29.64R
* FORT BENTON  PTCLDY    45  34  65 CALM      29.67R
* CHESTER      N/A       38  28  67 N2         N/A
* DENTON       N/A       45  35  68 NE4        N/A
* GEYSER       N/A       58  36  44 S13        N/A
* JUDITH GAP   N/A       45  36  71 S4         N/A
* LOMA         N/A       43  33  68 SW4        N/A
$$

MTZ017>020-022>027-061-062-211300-
NORTHEAST MONTANA
CITY           SKY/WX    TMP DP  RH WIND       PRES   REMARKS
GLASGOW        CLEAR     46  37  71 E15       29.68S
GLENDIVE       CLEAR     41  37  86 NE3       29.75F
JORDAN         CLEAR     34  28  79 CALM      29.70S
SIDNEY         CLEAR     36  32  85 CALM      29.76F
WOLF POINT     CLEAR     37  34  89 E6        29.72S WCI  32
* BEAVER HILL  N/A       45  40  83 SE14       N/A
* CIRCLE       N/A       48  40  74 N/A        N/A
* LINDSAY DVD  N/A       47  40  77 N/A        N/A
* NAVAJO       N/A       45  40  83 S6         N/A
$$

MTZ028>042-056>058-211300-
SOUTHCENTRAL AND SOUTHEAST MONTANA
CITY           SKY/WX    TMP DP  RH WIND       PRES   REMARKS
BAKER          CLEAR     43  39  86 SE7       29.76F
BILLINGS       CLEAR     50  28  43 SW15      29.75S
LIVINGSTON     PTCLDY    48  34  59 E3        29.77F
MILES CITY     CLEAR     43  37  79 E3        29.73S
* LAUREL APT   CLEAR     48  27  44 N/A        N/A
* ROUNDUP APT  CLEAR     41  28  60 N/A        N/A
* ALZADA       N/A       49  39  69 E6         N/A
* HYSHAM       N/A       54  25  33 W6         N/A
* LAME DEER    N/A       61  31  32 SW6        N/A
* REED POINT   N/A       34  33  96 N/A        N/A
* ROSCOE HILL  N/A       58  25  28 SE8        N/A
$$

REGIONAL REPORTS...DAKOTAS
CITY           SKY/WX    TMP DP  RH WIND       PRES   REMARKS
WILLISTON      CLEAR     45  37  74 CALM      29.76S
DICKINSON      CLEAR     37  34  89 E7        29.77F WCI  32
BEACH          N/A       39  39 100 S6        29.77F WCI  35
CROSBY         CLEAR     46  39  77 S13       29.76F
TIOGA          CLEAR     43  37  79 SE7       29.81F
BISMARCK       CLEAR     50  36  59 SE7       29.85F
GRAND FORKS    CLEAR     37  36  96 SE9       30.03F WCI  30
FARGO          CLEAR     45  37  74 SE14      30.04F
BUFFALO SD     CLEAR     48  39  71 S8        29.72F
RAPID CITY     CLEAR     48  37  66 SE3       29.84S
$$

REGIONAL REPORTS...WYOMING/IDAHO/WASHINGTON
CITY           SKY/WX    TMP DP  RH WIND       PRES   REMARKS
GILLETTE       PTCLDY    61  34  36 SW21G28   29.82F
SHERIDAN       PTCLDY    39  28  65 CALM      29.79S
CODY           CLEAR    N/A N/A N/A S14       29.83F
YELLOWSTONE LA CLEAR     28  27  96 CALM      30.00F
SALMON         CLOUDY    52  43  72 CALM      29.73F
MULLAN PASS    LGT RAIN  36  36 100 NW7       29.84S VSB 1/2  WCI  30
SAND POINT     CLOUDY    50  45  83 SW6       29.84R
SPOKANE        CLOUDY    48  45  89 S8        29.84S
$$

REGIONAL REPORTS...ALBERTA
CITY           SKY/WX    TMP DP  RH WIND       PRES   REMARKS
CALGARY        MOCLDY    45  34  65 NE5       29.64F
LETHBRIDGE     CLOUDY    52  37  57 SW9       29.65R
MEDICINE HAT   MOCLDY    41  36  82 S6        29.63R
EDMONTON       MOCLDY    43  37  79 W5        29.59S
WATERTON GATE  N/A       54  36  51 W7         N/A
CARDSTON       N/A       50  37  61 W7         N/A
MILK RIVER     N/A       48  36  63 NW9        N/A
$$

REGIONAL REPORTS...SASKATCHEWAN
CITY           SKY/WX    TMP DP  RH WIND       PRES   REMARKS
SWIFT CURRENT  CLEAR     48  39  71 S9        29.65S
MOOSE JAW      N/A       37  36  96 SE9       29.66F WCI  30
REGINA         N/A       43  39  86 SE15      29.70F
VAL MARIE      N/A       43  37  79 E6         N/A
ASSINIBOIA     N/A       39  36  89 SE8        N/A   WCI  33

$$




USA.gov is the U.S. government's official web portal to all federal, state and local government web resources and services.